Flag for Germany Weather past 2 weeks in Augsburg, Bavaria, Germany

Now
57 °F

Light freezing rain. Overcast.


Feels Like: 57 °F
Forecast: 45 / 60 °F
Wind: 1 mph from Southwest

Location: Augsburg

Current Time: Oct 21, 2014 at 12:53:39 AM

Latest Report: Oct 21, 2014 at 12:00 AM


Visibility: 3 mi

Pressure: 30.00 "Hg

Humidity: 99%

Dew point: 56 °F

Location of AugsburgLocation

Historic Weather in Augsburg — Graph

°F

Augsburg temperature yesterday

Maximum temperature yesterday: 68 °F (at 1:00 PM)
Minimum temperature yesterday: 54 °F (at 7:00 AM)
Average temperature yesterday: 61 °F

Past Weeks' High & Low Weather Summary

 TemperatureHumidityPressure
High77 °F (Oct 9, 4:00 PM)100% (Oct 6, 2:00 AM)30.27 "Hg (Oct 6, 2:00 AM)
Low43 °F (Oct 18, 7:00 AM)38% (Oct 9, 4:00 PM)29.75 "Hg (Oct 17, 8:00 AM)
Average57 °F88%29.95 "Hg
* Reported Oct 5 11:00 PM — Oct 20 11:00 PM, Augsburg, Weather by CustomWeather, © 2014

Note: Actual official high and low records may vary slightly from our data, if they occured in-between our weather recording intervals... More about our weather records

Advertising

Augsburg weather history for previous 24 hours

 ConditionsComfort  
Time TempWeatherWind HumidityBarometerVisibility
11:00 PM
Oct 20
58 °FLight rain. Low clouds.3 mph98%30.03 "Hg2 mi
10:00 PM57 °FDrizzle. Low clouds.1 mph100%30.01 "Hg2 mi
9:00 PM58 °FDrizzle. Overcast.2 mph99%30.02 "Hg3 mi
8:00 PM59 °FLight rain. Low clouds.3 mph97%30.04 "Hg3 mi
7:00 PM60 °FLight rain. Low clouds.3 mph93%30.03 "Hg3 mi
6:00 PM62 °FOvercast.5 mph89%30.03 "Hg16 mi
4:00 PM67 °FOvercast.3 mph72%30.02 "Hg31 mi
3:00 PM68 °FOvercast.6 mph67%30.03 "Hg25 mi
2:00 PM68 °FOvercast.5 mph68%30.05 "Hg28 mi
1:00 PM68 °FOvercast.6 mph68%30.06 "Hg25 mi
12:00 PM67 °FOvercast.6 mph70%30.08 "Hg22 mi
10:00 AM63 °FOvercast.7 mph70%30.12 "Hg9 mi
9:00 AM60 °FOvercast.5 mph78%30.13 "Hg31 mi
8:00 AM55 °FPartly sunny.3 mph89%30.14 "Hg25 mi
7:00 AM54 °FPassing clouds.2 mph88%30.15 "Hg28 mi
5:00 AM55 °FOvercast.3 mph86%30.14 "Hg25 mi
4:00 AM58 °FPassing clouds.3 mph81%30.15 "Hg28 mi
3:00 AM59 °FOvercast.3 mph80%30.15 "Hg31 mi
2:00 AM61 °FOvercast.5 mph75%30.14 "Hg34 mi
1:00 AM60 °FOvercast.6 mph76%30.14 "Hg34 mi
12:00 AM59 °FOvercast.5 mph80%30.14 "Hg37 mi
Weather by CustomWeather, © 2014

See weather overviewHow to use our weather pages